TimeMDT,TemperatureF,Dew PointF,Humidity,Sea Level PressureIn,VisibilityMPH,Wind Direction,Wind SpeedMPH,Gust SpeedMPH,PrecipitationIn,Events,Conditions,WindDirDegrees,DateUTC
12:48 AM,52.0,48.9,89,30.12,-9999.0,Calm,Calm,-,N/A,,Unknown,0,2013-06-17 06:48:00
1:48 AM,50.0,48.0,93,30.12,-9999.0,WNW,3.5,-,N/A,,Unknown,290,2013-06-17 07:48:00
2:48 AM,48.9,48.0,97,30.12,-9999.0,West,3.5,-,N/A,,Unknown,280,2013-06-17 08:48:00
3:48 AM,48.0,46.0,93,30.13,-9999.0,WNW,4.6,-,N/A,,Unknown,300,2013-06-17 09:48:00
4:48 AM,48.0,46.0,93,30.13,-9999.0,West,3.5,-,N/A,,Unknown,270,2013-06-17 10:48:00
5:48 AM,48.0,46.9,96,30.14,-9999.0,Calm,Calm,-,N/A,,Unknown,0,2013-06-17 11:48:00
6:48 AM,52.0,48.9,89,30.14,-9999.0,Calm,Calm,-,N/A,,Unknown,0,2013-06-17 12:48:00
7:48 AM,57.0,51.1,81,30.15,-9999.0,Calm,Calm,-,N/A,,Unknown,0,2013-06-17 13:48:00
8:48 AM,61.0,48.9,64,30.15,-9999.0,Calm,Calm,-,N/A,,Unknown,0,2013-06-17 14:48:00
9:48 AM,64.9,50.0,58,30.14,-9999.0,Variable,3.5,-,N/A,,Unknown,0,2013-06-17 15:48:00
10:48 AM,66.0,51.1,59,30.14,-9999.0,Calm,Calm,-,N/A,,Unknown,0,2013-06-17 16:48:00
11:48 AM,70.0,51.1,51,30.12,-9999.0,West,4.6,-,N/A,,Unknown,270,2013-06-17 17:48:00
12:48 PM,71.1,51.1,49,30.11,-9999.0,WSW,4.6,-,N/A,,Unknown,250,2013-06-17 18:48:00
1:48 PM,72.0,50.0,46,30.10,-9999.0,Calm,Calm,-,N/A,,Unknown,0,2013-06-17 19:48:00
2:48 PM,73.9,50.0,43,30.08,-9999.0,Calm,Calm,-,N/A,,Unknown,0,2013-06-17 20:48:00
3:48 PM,73.9,50.0,43,30.07,-9999.0,Variable,3.5,-,N/A,,Unknown,0,2013-06-17 21:48:00
4:48 PM,75.0,50.0,41,30.06,-9999.0,East,4.6,-,N/A,,Unknown,90,2013-06-17 22:48:00
5:48 PM,75.0,50.0,41,30.04,-9999.0,SE,6.9,-,N/A,,Unknown,130,2013-06-17 23:48:00
6:48 PM,75.0,51.1,43,30.03,-9999.0,ENE,5.8,-,N/A,,Unknown,70,2013-06-18 00:48:00
7:48 PM,73.0,52.0,48,30.01,-9999.0,East,8.1,-,N/A,,Unknown,90,2013-06-18 01:48:00
8:48 PM,68.0,54.0,61,30.00,-9999.0,East,8.1,-,N/A,,Unknown,80,2013-06-18 02:48:00
9:48 PM,64.0,55.0,73,30.04,-9999.0,East,5.8,-,N/A,,Unknown,90,2013-06-18 03:48:00
10:48 PM,62.1,55.0,78,30.04,-9999.0,East,5.8,-,N/A,,Unknown,100,2013-06-18 04:48:00
11:48 PM,61.0,53.1,75,30.02,-9999.0,East,6.9,-,N/A,,Unknown,90,2013-06-18 05:48:00